#timestamp,LO_Frequency,Hit,StdDev 
1603276935.7,286046960.3,P
1603276955.5,286046961.0,P
1603276975.4,286046960.5,P
1603276995.2,286046958.7,Y
1603277015.0,286046999.3,P
1603277016.0,286046999.3,N
1603277035.8,286046997.1,N
1603277055.6,286046997.9,N
1603277075.5,286046995.3,N
1603277095.3,286046995.7,N
1603277115.1,286046993.8,N
1603277135.9,286046996.0,N
1603277155.7,286046995.7,N
1603277175.6,286046996.3,N
1603277195.4,286046994.4,N
1603277215.2,286046994.6,N
1603277235.1,286046993.5,N
1603277236.0,286046993.5,N
1603277255.8,286046996.0,N
1603277275.6,286046994.4,N
1603277295.5,286046993.7,N
1603277315.3,286046992.2,N
1603277335.2,286046992.0,N
1603277355.9,286046993.0,N
1603277375.7,286046993.2,N
1603277395.6,286046992.7,N
1603277415.4,286046992.0,N
1603277435.3,286046992.0,N
1603277455.1,286046992.9,N
1603277456.0,286046992.9,N
1603277475.8,286046992.9,N
1603277495.7,286046992.6,N
1603277515.5,286046992.9,N
1603277535.3,286046992.6,N
1603277555.2,286046990.6,Y
1603277575.0,286046997.6,P
1603277575.9,286046997.6,N
1603277595.8,286046997.8,N
1603277615.6,286046996.3,N
1603277635.4,286046993.4,Y
1603277655.3,286046997.3,P
1603277675.1,286046997.3,P
1603277695.9,286046994.9,P
1603277715.7,286046996.1,Y
1603277735.5,286046998.8,P
1603277755.4,286046999.0,N
1603277775.2,286046999.1,N
1603277795.0,286046996.5,Y
1603277796.0,286046996.5,P
1603277815.8,286046998.6,N
1603277835.6,286047000.8,N
1603277855.5,286046996.5,N
1603277875.3,286046996.5,N
1603277895.1,286046999.2,N
1603277915.9,286046999.6,N
1603277935.7,286046998.5,N
1603277955.6,286046999.6,N
1603277975.4,286046999.1,N
1603277995.2,286046997.3,N
